Vorticity
3 2 6 7 7 8 4 7 2 -5 3 5 4 4 3 5 4 5 4 6 9 12 10 9 8 10 13 10 12 6 13 3
8 10 9 7 9 5 -2 -8 3 10 1 4 7 4 3 3 6 6 8 10 11 9 11 9 9 13 13 8 5 4 10 11
6 10 7 1 -4 7 19 6 0 3 2 4 6 6 7 9 9 7 11 10 12 10 8 7 14 9 5 2 9 14 14 12
11 11 8 13 11 4 3 -3 15 11 10 8 10 8 8 4 6 13 11 11 8 6 11 12 7 6 2 13 15 14 12 11
7 11 13 7 6 14 12 2 5 7 8 8 8 8 9 11 12 15 10 7 8 11 10 8 6 6 13 12 12 11 11 12
13 9 14 7 -1 0 6 8 7 11 11 8 9 9 12 7 11 8 6 8 11 9 5 11 9 10 12 12 14 10 13 16
1 5 -1 2 11 0 7 5 7 9 12 10 11 10 10 10 9 7 6 11 8 8 10 11 12 14 15 12 11 14 15 9
1 3 3 -3 9 5 13 11 12 13 12 10 9 8 8 10 9 6 12 9 8 12 10 10 10 12 11 12 15 14 11 11
-2 -3 2 26 16 14 9 16 15 14 13 7 4 11 16 11 4 12 8 5 15 14 12 10 11 10 13 13 10 13 11 16
-9 9 17 -8 1 29 14 15 13 8 11 11 12 12 11 5 11 5 4 18 13 12 10 9 8 10 10 9 14 15 10 14
20 5 -0 3 13 23 12 17 20 10 13 10 11 7 6 12 4 17 13 11 9 15 7 7 8 10 6 8 15 14 11 17
-8 8 19 7 17 17 9 11 27 13 11 12 6 14 9 12 8 12 10 12 16 7 5 6 10 6 5 14 17 11 21 16
19 14 6 7 12 28 8 25 18 7 8 8 7 9 6 4 12 11 13 18 9 5 5 8 11 8 9 18 15 13 17 13
-1 3 19 16 14 16 13 15 5 4 8 5 6 5 4 10 15 13 14 13 6 5 6 9 12 8 8 14 12 14 11 10
22 26 20 14 15 9 24 9 7 2 6 4 5 1 8 12 13 13 14 8 6 5 7 12 10 8 10 13 11 15 12 9
-13 -11 -3 4 11 14 32 16 3 9 5 5 3 3 11 14 15 13 10 8 5 6 6 8 12 9 9 13 13 14 11 9
26 11 3 13 7 12 24 10 8 5 4 5 0 11 15 12 11 10 9 8 5 7 5 7 9 10 9 14 15 15 11 9
13 10 12 16 8 18 44 4 -7 5 6 -15 13 16 13 12 10 10 9 7 6 6 5 8 13 10 9 12 16 14 11 9
25 16 8 -3 -1 -5 28 18 -12 2 2 12 14 13 12 9 9 10 8 8 8 7 9 14 18 12 10 13 16 13 11 9
Height
5747 5748 5749 5749 5751 5749 5747 5746 5745 5745 5743 5740 5737 5734 5732 5729 5726 5721 5717 5713 5710 5707 5703 5699 5694 5690 5686 5682 5678 5674 5672 5669
5740 5741 5741 5741 5743 5740 5738 5738 5737 5735 5732 5730 5728 5725 5722 5719 5713 5710 5706 5703 5699 5695 5691 5687 5682 5678 5674 5669 5664 5660 5657 5654
5733 5734 5734 5733 5733 5732 5731 5728 5725 5723 5721 5719 5716 5713 5710 5706 5702 5698 5695 5692 5687 5683 5679 5675 5670 5666 5661 5657 5652 5647 5643 5640
5724 5725 5723 5723 5723 5721 5720 5718 5716 5713 5711 5707 5705 5702 5698 5695 5691 5687 5683 5680 5675 5671 5667 5662 5658 5653 5649 5645 5639 5634 5629 5624
5715 5714 5713 5711 5710 5709 5708 5706 5703 5701 5698 5695 5691 5689 5685 5681 5679 5678 5674 5669 5665 5660 5655 5650 5646 5642 5638 5633 5628 5621 5615 5609
5703 5704 5703 5701 5701 5700 5698 5696 5692 5690 5687 5683 5680 5676 5673 5669 5667 5665 5663 5657 5652 5649 5644 5639 5634 5630 5626 5620 5615 5609 5604 5597
5692 5695 5693 5691 5690 5688 5686 5684 5680 5677 5675 5670 5667 5664 5661 5658 5657 5655 5651 5647 5643 5639 5634 5629 5623 5619 5615 5610 5604 5598 5592 5586
5681 5683 5682 5680 5678 5676 5674 5671 5669 5666 5662 5659 5656 5652 5650 5649 5646 5643 5641 5637 5633 5628 5624 5619 5613 5609 5605 5600 5593 5587 5581 5576
5666 5668 5668 5666 5664 5663 5660 5659 5656 5653 5649 5646 5644 5641 5640 5638 5636 5632 5629 5626 5622 5618 5614 5609 5605 5600 5595 5589 5583 5578 5574 5568
5651 5653 5653 5650 5651 5650 5646 5646 5643 5639 5637 5635 5634 5632 5631 5628 5626 5623 5619 5616 5612 5608 5604 5600 5595 5591 5586 5580 5575 5571 5567 5562
5639 5641 5640 5638 5637 5637 5634 5632 5631 5629 5626 5625 5625 5623 5622 5619 5617 5614 5609 5605 5602 5599 5595 5590 5587 5583 5578 5573 5568 5564 5559 5555
5627 5626 5625 5623 5625 5624 5621 5621 5620 5619 5616 5617 5616 5614 5612 5610 5607 5603 5600 5596 5593 5590 5586 5581 5579 5575 5571 5566 5561 5557 5553 5549
5614 5613 5611 5614 5614 5613 5610 5610 5610 5609 5610 5609 5608 5605 5603 5601 5597 5594 5590 5587 5585 5582 5576 5574 5571 5568 5564 5559 5555 5551 5548 5545
5600 5602 5599 5602 5602 5602 5599 5599 5599 5600 5600 5599 5598 5596 5594 5591 5588 5584 5581 5579 5576 5573 5568 5566 5564 5560 5557 5553 5549 5546 5543 5541
5589 5588 5589 5590 5590 5590 5589 5588 5589 5592 5591 5590 5588 5587 5584 5580 5577 5574 5572 5571 5568 5564 5561 5559 5556 5553 5550 5546 5543 5540 5538 5536
5579 5577 5577 5579 5579 5578 5579 5577 5580 5581 5580 5579 5578 5577 5574 5571 5568 5566 5564 5563 5560 5557 5555 5552 5548 5546 5543 5540 5536 5533 5532 5530
5565 5566 5565 5568 5570 5567 5567 5566 5567 5570 5569 5570 5569 5567 5565 5562 5559 5557 5556 5555 5552 5549 5547 5544 5541 5538 5536 5533 5529 5527 5525 5525
5551 5552 5552 5554 5557 5556 5555 5553 5556 5558 5560 5560 5558 5558 5555 5553 5551 5550 5548 5546 5544 5542 5539 5535 5533 5531 5528 5525 5522 5521 5519 5518
5536 5538 5538 5542 5543 5545 5545 5544 5545 5546 5549 5549 5549 5548 5547 5545 5543 5542 5540 5538 5536 5534 5530 5527 5524 5522 5520 5517 5515 5513 5512 5512